User: anonymous   Login
Location: Rounton
(54.4000°N, 1.3500°W)
Time: 13:16:12
(UTC+01:00)
Language:

Explorer 11/Cluster Stage 4 - Orbit

View from above orbital plane
View from above orbital plane
View from above satellite
View from above satellite

Ground track
Ground track

The orbit data is extracted from the following two-line orbital elements,

1   107U 61013A   24172.15593195  .00002370  00000-0  28425-3 0  9999
2   107  28.7867 170.3313 0520835 207.6700 149.5217 14.15380845172661
Epoch (UTC): 20 June 2024 03:44:32
Eccentricity: 0.0520835
inclination: 28.7867°
perigee height: 465 km
apogee height: 1217 km
right ascension of ascending node: 170.3313°
argument of perigee: 207.6700°
revolutions per day: 14.15380845
mean anomaly at epoch: 149.5217°
orbit number at epoch: 17266

The dashed part of the orbit path shows where the satellite is in the earth's shadow,  

DLR